letsintern.com alexa rank chart, letsintern.com alexa rank daily changes

letsintern.com alexa rank chart, letsintern.com alexa rank daily changes

letsintern.com
Actual rank:
43 084

RANK HISTORY

Date Rank Diff
2017/06/25 43 084 +833
2017/06/24 42 251 -210
2017/06/23 42 461 -176
2017/06/22 42 637 +483
2017/06/21 42 154 +160
2017/06/20 41 994 +1 026
2017/06/19 40 968 +379
2017/06/18 40 589 +243
2017/06/17 40 346 +457
2017/06/16 39 889 +48
2017/06/15 39 841 +183
2017/06/14 39 658 +435
2017/06/13 39 223 +584
2017/06/12 38 639 +420
2017/06/11 38 219 +107
2017/06/10 38 112 +461
2017/06/09 37 651 -32
2017/06/08 37 683 +293
2017/06/07 37 390 +398
2017/06/06 36 992 +763
2017/06/05 36 229 +469
2017/06/04 35 760 +323
2017/06/03 35 437 +89
2017/06/02 35 348 -96
2017/06/01 35 444 +161
2017/05/31 35 283 -57
2017/05/30 35 340 +56
2017/05/29 35 284 +226
2017/05/28 35 058 -31
2017/05/27 35 089 +381
2017/05/26 34 708 -111
2017/05/25 34 819 -352
2017/05/24 35 171 +145
2017/05/23 35 026 +254
2017/05/22 34 772 -154
2017/05/21 34 926 -52
2017/05/20 34 978 -173
2017/05/19 35 151 -129
2017/05/18 35 280 -307
2017/05/17 35 587 +14
2017/05/16 35 573 +334
2017/05/15 35 239 +172
2017/05/14 35 067 +19
2017/05/13 35 048 -254
2017/05/12 35 302 +126
2017/05/11 35 176 +110
2017/05/10 35 066 -385
2017/05/09 35 451 +489
2017/05/08 34 962 -33
2017/05/07 34 995 -167
2017/05/06 35 162 -180
2017/05/05 35 342 -114
2017/05/04 35 456 -186
2017/05/03 35 642 -101
2017/05/02 35 743 -27
2017/05/01 35 770 +110
2017/04/30 35 660 -215
2017/04/29 35 875 +2
2017/04/27 35 873 -398
2017/04/26 36 271

WIDGET FOR YOUR SITE

DOMAINS WITH THE NEAREST RANK

Domain Rank
apartmanihrvatska.hr 43 079
societegenerale.com 43 080
examveda.com 43 081
fortunewheel.space 43 082
mega-torrent.co 43 083
letsintern.com 43 084
nestbank.pl 43 085
rash.jp 43 086
africanadvice.com 43 087
dj97.com 43 088
teknokulis.com 43 089

DOMAINS WITH THE NEAREST RANK BY TLD .com

Domain Rank
dollar.com 43 068
notsafeforwork.com 43 069
djmag.com 43 076
societegenerale.com 43 080
examveda.com 43 081
letsintern.com 43 084
africanadvice.com 43 087
dj97.com 43 088
teknokulis.com 43 089
amolatina.com 43 092
7sage.com 43 096